Weather History for Natchitoches, LA

Change the Weather History Date:

Thursday, November 8, 2012

  Actual Average Record
Temperature  
Mean Temperature 53 °F -  
Max Temperature 71 °F 69 °F 85 °F (1989)
Min Temperature 35 °F 45 °F 27 °F (1951)
Degree Days  
Heating Degree Days 12    
Growing Degree Days 3 (Base 50)    
Moisture  
Dew Point 40 °F    
Average Humidity 69    
Maximum Humidity 99    
Minimum Humidity 31    
Precipitation  
Precipitation 0.00 in - - ()
Sea Level Pressure  
Sea Level Pressure 30.19 in    
Wind  
Wind Speed 2 mph (SE)    
Max Wind Speed 12 mph    
Max Gust Speed -    
Visibility 10 miles    
Events      
Averages and records for this station are not official NWS values.
T = Trace of Precipitation, MM = Missing Value Source: NWS Daily Summary

Daily Weather History Graph

Daily Weather History Graph

Search for Another Location

Airport:

Trip Planner

Search our weather history database for the weather conditions in past years. The results will help you decide how hot, cold, wet, or windy it might be!

Date:

Astronomy

Nov. 08, 2012 Rise Set
Actual Time 6:34 AM CST 5:17 PM CST
Civil Twilight 6:09 AM CST 5:42 PM CST
Nautical Twilight 5:40 AM CST 6:11 PM CST
Astronomical Twilight 5:11 AM CST 6:40 PM CST
Moon 12:51 AM CST (11/8) 1:39 PM CST (11/8)
Length of Visible Light 11h 33m
Length of Day
10h 42m
Waning Crescent, 32% of the Moon is Illuminated
Nov 8
Waning Crescent
Nov 13
New
Nov 20
First Quarter
Nov 28
Full
Dec 6
Last Quarter

Hourly Weather History & Observations

Time (CST) Temp. Dew Point Humidity Pressure Visibility Wind Dir Wind Speed Gust Speed Precip Events Conditions
12:15 AM 40.8 °F 39.2 °F 94% 30.17 in 10.0 mi Calm Calm - N/A   Clear
12:35 AM 39.7 °F 38.8 °F 97% 30.17 in 10.0 mi Calm Calm - N/A   Clear
12:55 AM 40.1 °F 39.2 °F 97% 30.18 in 10.0 mi Calm Calm - N/A   Clear
1:15 AM 39.4 °F 38.7 °F 97% 30.18 in 10.0 mi Calm Calm - N/A   Clear
1:35 AM 39.4 °F 38.5 °F 97% 30.18 in 10.0 mi Calm Calm - N/A   Clear
1:55 AM 39.4 °F 38.8 °F 98% 30.19 in 10.0 mi Calm Calm - N/A   Clear
2:15 AM 38.8 °F 38.3 °F 98% 30.19 in 10.0 mi Calm Calm - N/A   Clear
2:35 AM 38.3 °F 37.4 °F 97% 30.19 in 10.0 mi Calm Calm - N/A   Clear
2:55 AM 38.5 °F 37.4 °F 96% 30.18 in 10.0 mi Calm Calm - N/A   Clear
3:15 AM 38.1 °F 37.6 °F 98% 30.18 in 10.0 mi Calm Calm - N/A   Clear
3:35 AM 38.1 °F 37.8 °F 99% 30.18 in 10.0 mi Calm Calm - N/A   Clear
3:55 AM 37.2 °F 36.5 °F 97% 30.19 in 10.0 mi Calm Calm - N/A   Clear
4:15 AM 37.0 °F 36.5 °F 98% 30.19 in 10.0 mi Calm Calm - N/A   Clear
4:35 AM 36.5 °F 36.0 °F 98% 30.20 in 10.0 mi Calm Calm - N/A   Clear
4:55 AM 36.1 °F 35.8 °F 99% 30.20 in 10.0 mi Calm Calm - N/A   Clear
5:15 AM 35.8 °F 35.6 °F 99% 30.21 in 10.0 mi Calm Calm - N/A   Clear
5:35 AM 35.8 °F 35.6 °F 99% 30.21 in 10.0 mi Calm Calm - N/A   Clear
5:55 AM 36.1 °F 35.8 °F 99% 30.22 in 10.0 mi Calm Calm - N/A   Clear
6:15 AM 35.8 °F 35.6 °F 99% 30.22 in 10.0 mi Calm Calm - N/A   Clear
6:35 AM 35.8 °F 35.6 °F 99% 30.22 in 10.0 mi Calm Calm - N/A   Clear
6:55 AM 35.8 °F 35.6 °F 99% 30.23 in 7.0 mi Calm Calm - N/A   Clear
7:15 AM 38.5 °F 37.8 °F 97% 30.24 in 10.0 mi Calm Calm - N/A   Clear
7:35 AM 42.6 °F 39.6 °F 89% 30.24 in 10.0 mi Calm Calm - N/A   Clear
7:55 AM 45.7 °F 40.3 °F 81% 30.25 in 10.0 mi Calm Calm - N/A   Clear
8:15 AM 47.7 °F 40.5 °F 76% 30.26 in 10.0 mi SSE 3.5 mph - N/A   Clear
8:35 AM 49.5 °F 40.8 °F 72% 30.26 in 10.0 mi SE 5.8 mph - N/A   Clear
8:55 AM 52.2 °F 39.7 °F 63% 30.27 in 10.0 mi South 6.9 mph - N/A   Clear
9:15 AM 54.5 °F 38.5 °F 55% 30.27 in 10.0 mi SE 11.5 mph - N/A   Clear
9:35 AM 55.8 °F 37.6 °F 51% 30.27 in 10.0 mi SSE 10.4 mph - N/A   Clear
9:55 AM 57.2 °F 38.5 °F 50% 30.27 in 10.0 mi SE 8.1 mph - N/A   Clear
10:15 AM 58.5 °F 38.3 °F 47% 30.27 in 10.0 mi SSE 9.2 mph - N/A   Clear
10:35 AM 60.4 °F 38.5 °F 44% 30.26 in 10.0 mi SSE 6.9 mph - N/A   Clear
10:55 AM 62.6 °F 38.8 °F 42% 30.25 in 10.0 mi ESE 4.6 mph - N/A   Clear
11:15 AM 63.5 °F 38.7 °F 40% 30.24 in 10.0 mi South 8.1 mph - N/A   Clear
11:35 AM 64.6 °F 38.7 °F 38% 30.23 in 10.0 mi SSE 5.8 mph - N/A   Clear
11:55 AM 65.3 °F 38.3 °F 37% 30.22 in 10.0 mi SE 6.9 mph - N/A   Clear
12:15 PM 66.4 °F 38.8 °F 36% 30.21 in 10.0 mi SE 4.6 mph - N/A   Clear
12:35 PM 67.5 °F 38.8 °F 35% 30.19 in 10.0 mi SE 8.1 mph - N/A   Clear
12:55 PM 68.0 °F 38.7 °F 34% 30.18 in 10.0 mi ESE 5.8 mph - N/A   Clear
1:15 PM 69.1 °F 39.0 °F 33% 30.17 in 10.0 mi ESE 4.6 mph - N/A   Clear
1:35 PM 69.4 °F 39.0 °F 33% 30.17 in 10.0 mi Calm Calm - N/A   Clear
1:55 PM 70.7 °F 38.7 °F 31% 30.16 in 10.0 mi SE 3.5 mph - N/A   Clear
2:15 PM 71.2 °F 39.9 °F 32% 30.16 in 10.0 mi ESE 5.8 mph - N/A   Clear
2:35 PM 71.4 °F 40.1 °F 32% 30.15 in 10.0 mi SE 4.6 mph - N/A   Clear
2:55 PM 71.6 °F 40.3 °F 32% 30.15 in 10.0 mi ESE 6.9 mph - N/A   Clear
3:15 PM 71.1 °F 40.8 °F 33% 30.14 in 10.0 mi SE 4.6 mph - N/A   Clear
3:35 PM 70.7 °F 40.6 °F 34% 30.14 in 10.0 mi ESE 5.8 mph - N/A   Clear
3:55 PM 70.7 °F 41.2 °F 34% 30.15 in 10.0 mi SSE 5.8 mph - N/A   Clear
4:15 PM 69.8 °F 40.8 °F 35% 30.14 in 10.0 mi ESE 8.1 mph - N/A   Clear
4:35 PM 68.2 °F 41.0 °F 37% 30.14 in 10.0 mi SE 6.9 mph - N/A   Clear
4:55 PM 66.2 °F 41.9 °F 41% 30.14 in 10.0 mi SSE 5.8 mph - N/A   Clear
5:15 PM 62.1 °F 41.9 °F 48% 30.14 in 10.0 mi SE 4.6 mph - N/A   Clear
5:35 PM 60.1 °F 40.8 °F 49% 30.14 in 10.0 mi SSE 4.6 mph - N/A   Clear
5:55 PM 58.5 °F 41.2 °F 53% 30.14 in 10.0 mi SE 4.6 mph - N/A   Clear
6:15 PM 56.8 °F 41.9 °F 57% 30.15 in 7.0 mi Calm Calm - N/A   Clear
6:35 PM 54.7 °F 42.4 °F 63% 30.15 in 10.0 mi Calm Calm - N/A   Clear
6:55 PM 53.6 °F 42.1 °F 65% 30.15 in 10.0 mi SSE 3.5 mph - N/A   Clear
7:15 PM 53.6 °F 41.9 °F 65% 30.15 in 10.0 mi SE 3.5 mph - N/A   Clear
7:35 PM 54.0 °F 41.0 °F 62% 30.15 in 10.0 mi SSE 3.5 mph - N/A   Clear
7:55 PM 52.7 °F 41.0 °F 64% 30.15 in 10.0 mi South 3.5 mph - N/A   Clear
8:15 PM 50.4 °F 40.8 °F 70% 30.16 in 10.0 mi SSE 4.6 mph - N/A   Clear
8:35 PM 50.2 °F 41.2 °F 71% 30.16 in 10.0 mi SSE 3.5 mph - N/A   Clear
8:55 PM 49.3 °F 42.1 °F 76% 30.16 in 10.0 mi Calm Calm - N/A   Clear
9:15 PM 48.7 °F 43.3 °F 82% 30.16 in 10.0 mi Calm Calm - N/A   Clear
9:35 PM 47.5 °F 43.9 °F 87% 30.16 in 10.0 mi Calm Calm - N/A   Clear
9:55 PM 46.8 °F 43.2 °F 87% 30.16 in 10.0 mi Calm Calm - N/A   Clear
10:15 PM 46.0 °F 43.7 °F 92% 30.16 in 10.0 mi Calm Calm - N/A   Clear
10:35 PM 44.8 °F 43.2 °F 94% 30.16 in 10.0 mi Calm Calm - N/A   Clear
10:55 PM 45.9 °F 43.0 °F 90% 30.16 in 10.0 mi Calm Calm - N/A   Clear
11:15 PM 45.9 °F 43.0 °F 90% 30.16 in 10.0 mi Calm Calm - N/A   Clear
11:35 PM 46.2 °F 43.2 °F 89% 30.16 in 10.0 mi Calm Calm - N/A   Clear
11:55 PM 45.5 °F 43.0 °F 91% 30.16 in 10.0 mi Calm Calm - N/A   Clear